Weather Roundup
Issued by NWS

Home | Current Version | Previous Version | Graphics & Text | Print | Product List | Glossary Off
Versions: 1 2 3 4 5 6 7 8 9 10 11 12 13 14 15 16 17 18 19 20 21 22 23 24 25 26 27 28 29 30 31 32 33 34 35 36 37 38 39 40 41 42 43 44 45 46 47 48 49 50

000
NZUS93 KARX 060459
HRRWXR

CURRENT HOURLY OBSERVATIONS ACROSS
MUCH OF THE UPPER MISSISSIPPI VALLEY
NATIONAL WEATHER SERVICE LA CROSSE WI
1100 PM CST THU MAR 05 2015


...SOUTHEAST MINNESOTA...


CITY           SKY/WX    TMP DP  RH WIND       PRES   REMARKS
ROCHESTER      PTCLDY     1  -5  75 S14       30.33F WCI -17
ROCHESTER/MAYO FAIR       5  -3  69 S10G16    30.35F WCI -10
WINONA         PTCLDY     5  -2  72 SE3       30.44F
AUSTIN         PTCLDY     3  -2  78 S9        30.34F WCI -11
ALBERT LEA     PTCLDY     7   0  72 S8        30.32F WCI  -6
DODGE CENTER   PTCLDY     5   0  78 S17       30.32F WCI -14
PRESTON        MOCLDY     1  -5  75 S15       30.37F WCI -18
OWATONNA       CLEAR      9   0  66 S18       30.30F WCI -10
FARIBAULT      CLEAR      9   1  72 S13       30.32F WCI  -7
$$

...ELSEWHERE IN MINNESOTA...


CITY           SKY/WX    TMP DP  RH WIND       PRES   REMARKS
MINNEAPOLIS    FAIR       9   0  67 S10       30.31F WCI  -5
INTNL FALLS    PTCLDY    11  -2  56 SW13G23   30.01F WCI  -4
DULUTH         CLEAR      6  -3  66 SW13      30.16F WCI -10
RED WING       PTCLDY     7  -2  66 SE3       30.36F
REDWOOD FALLS  CLEAR     13   5  70 S14       30.22F WCI  -2
MANKATO        CLEAR     10   3  72 S12G17    30.28F WCI  -4
FAIRMONT       CLEAR     12   3  67 S16       30.26F WCI  -4
$$

...SOUTHWEST WISCONSIN...


CITY           SKY/WX    TMP DP  RH WIND       PRES   REMARKS
LA CROSSE      PTCLDY     5  -4  66 S8        30.45F WCI  -8
PRAIRIE DU CHI MOCLDY    -1  -8  71 CALM      30.51F
BOSCOBEL       PTCLDY     0  -7  72 SW3       30.50F
LONE ROCK      NOT AVBL
PLATTEVILLE    MOCLDY     1  -6  72 S5        30.47F WCI  -8
FORT MC COY    PTCLDY     3  -5  70 CALM      30.45F
VIROQUA        FAIR       1  -5  75 SW7       30.41F WCI -12
WIS DELLS      NOT AVBL
$$

...ELSEWHERE IN WISCONSIN...


CITY           SKY/WX    TMP DP  RH WIND       PRES   REMARKS
MILWAUKEE      PTCLDY     6  -7  54 W8        30.48F WCI  -7
MADISON        PTCLDY     5  -6  60 SW6       30.46F WCI  -6
GREEN BAY      MOCLDY     5  -7  57 SW7       30.42F WCI  -7
EAU CLAIRE     NOT AVBL
BLACK RVR FLS  FAIR      -3  -9  75 S3        30.42F
MEDFORD        PTCLDY     1 -10  61 SW6       30.32F WCI -11
WAUSAU         PTCLDY     2 -10  57 CALM      30.34F
WIS RAPIDS     PTCLDY     4  -8  57 SW10      30.41F WCI -11
MARSHFIELD     PTCLDY     2  -9  60 SW6       30.36F WCI  -9
RICE LAKE      PTCLDY     1  -6  73 S7        30.34F WCI -12
$$

...NORTHEAST IOWA...


CITY           SKY/WX    TMP DP  RH WIND       PRES   REMARKS
DECORAH        PTCLDY     1  -6  71 S6        30.42F WCI -10
MASON CITY     PTCLDY     2  -4  76 S10       30.37F WCI -14
CHARLES CITY   PTCLDY     3  -4  72 S14       30.41F WCI -15
OELWEIN        PTCLDY    -2  -9  71 S8        30.46F WCI -17
$$

...ELSEWHERE IN IOWA...


CITY           SKY/WX    TMP DP  RH WIND       PRES   REMARKS
DES MOINES     PTCLDY    17   4  56 SE9       30.42F WCI   6
IOWA CITY      MOCLDY     3  -3  76 CALM      30.54S
FORT DODGE     CLEAR     16   1  53 S8        30.35F WCI   5
$$

...NORTHERN ILLINOIS...


CITY           SKY/WX    TMP DP  RH WIND       PRES   REMARKS
CHICAGO-OHARE  PTCLDY     7  -2  66 W8        30.53F WCI  -6
CHICAGO-MIDWAY PTCLDY    10  -1  61 W8        30.55S WCI  -2
MOLINE         MOCLDY     2  -5  72 CALM      30.55S
ROCKFORD       PTCLDY     2  -6  69 S5        30.53F WCI  -8
PEORIA         MOCLDY     5  -3  69 CALM      30.57F
$$

NOTE: "FAIR" INDICATES FEW OR NO CLOUDS BELOW 12,000 FEET WITH NO
SIGNIFICANT WEATHER AND/OR OBSTRUCTIONS TO VISIBILITY. WIND
SPEEDS ARE IN MILES-PER-HOUR.



USA.gov is the U.S. government's official web portal to all federal, state and local government web resources and services.